• Join FlightAware (Why Join?)
  • Login
  • US Flag 
06:09PM EST


 

Airport Tracker/Info


-or-


 

Live Flight TrackerFlight Track Log ✈ AMF9315 ✈ 07-Jan-2014 ✈ KHSV - KMQY

Flight Track Log - Related Links

Times and Time Zones

All times are in EST time to prevent confusion due to time zone crossing. See the AMF9315 flight status page for this flight to view local times or setup timezone preferences in your user account.

Time Position Orientation Groundspeed Altitude Reporting Facility
EST Latitude Longitude Course Direction KTS MPH feet Rate Location/Type
07:31AM 34.7217 -86.7483 26° Northeast 167 192 6,800  Level Memphis Center
07:32AM 34.7706 -86.7322 15° North 179 206 9,600 2,083 Climbing Memphis Center
07:33AM 34.8250 -86.7119 17° North 199 229 11,000 689 Climbing Memphis Center
07:34AM 34.8925 -86.6867 17° North 240 276 11,000  Level Memphis Center
07:35AM 34.9631 -86.6711 10° North 254 292 11,000  Level Memphis Center
07:36AM 34.9905 -86.7102 14° North  Level Estimated
07:36AM 35.0325 -86.6619 North 252 290 11,000  Level Memphis Center
07:37AM 35.0441 -86.6785 26° Northeast  Level FlightAware Approximate
07:37AM 35.1069 -86.6528 North 248 285 11,000  Level Memphis Center
07:38AM 35.1767 -86.6414 North 250 288 11,000  Level Memphis Center
07:39AM 35.2444 -86.6317 North 245 282 11,000  Level Memphis Center
07:40AM 35.3128 -86.6222 North 245 282 11,000  Level Memphis Center
07:41AM 35.3811 -86.6125 North 244 281 11,000  Level Memphis Center
07:42AM 35.4500 -86.6022 North 246 283 11,000 -198 Level Memphis Center
07:43AM 35.5181 -86.5933 North 245 282 10,600 -885 Descending Memphis Center
07:44AM 35.5914 -86.5806 North 258 297 9,200 -1,279 Descending Memphis Center
07:45AM 35.6639 -86.5692 North 260 299 8,000 -1,140 Descending Memphis Center
07:46AM 35.7344 -86.5586 North 256 295 6,900 -1,388 Descending Memphis Center
07:47AM 35.8047 -86.5486 North 254 292 5,200 -1,574 Descending Memphis Center
07:48AM 35.8708 -86.5200 19° North 247 284 3,700 -1,230 Descending Memphis Center
07:49AM 35.9367 -86.4981 15° North 244 281 2,700 -793 Descending Memphis Center
07:50AM 36.0000 -86.4897 North 233 268 2,100 -446 Descending Memphis Center
07:51AM 36.0467 -86.4814 North 185 213 1,800 -443 Descending Memphis Center
07:52AM 36.0403 -86.5186 258° West 142 163 1,200 -545 Descending Memphis Center
07:53AM 36.0033 -86.5206 182° South 134 154 700 -500 Descending Memphis Center